Weather History for KFMH - March, 2014

Change the Weather History Date:

Friday, March 28, 2014

  Actual Average Record
Temperature  
Mean Temperature 46 °F -  
Max Temperature 57 °F 46 °F 66 °F (1998)
Min Temperature 35 °F 31 °F 24 °F (2012)
Degree Days  
Heating Degree Days 19    
Moisture  
Dew Point 40 °F    
Average Humidity 78    
Maximum Humidity 100    
Minimum Humidity 59    
Precipitation  
Precipitation 0.02 in - - ()
Sea Level Pressure  
Sea Level Pressure 30.13 in    
Wind  
Wind Speed 17 mph (SW)    
Max Wind Speed 37 mph    
Max Gust Speed 50 mph    
Visibility 9 miles    
Events Rain    
Averages and records for this station are not official NWS values.
T = Trace of Precipitation, MM = Missing Value Source: NWS Daily Summary

Daily Weather History Graph

Daily Weather History Graph

Search for Another Location

Airport or City:

Trip Planner

Search our weather history database for the weather conditions in past years. The results will help you decide how hot, cold, wet, or windy it might be!

Date:

Astronomy

Mar. 28, 2014 Rise Set
Actual Time 6:31 AM EDT 7:03 PM EDT
Civil Twilight 6:03 AM EDT 7:30 PM EDT
Nautical Twilight 5:31 AM EDT 8:03 PM EDT
Astronomical Twilight 4:57 AM EDT 8:37 PM EDT
Moon 5:02 AM EDT (3/28) 4:54 PM EDT (3/28)
Length of Visible Light 13h 27m
Length of Day
12h 31m
Waning Crescent, 6% of the Moon is Illuminated
Mar 28
Waning Crescent
Mar 30
New
Apr 7
First Quarter
Apr 15
Full
Apr 22
Last Quarter

Hourly Weather History & Observations

Time (EDT) Temp. Windchill Dew Point Humidity Pressure Visibility Wind Dir Wind Speed Gust Speed Precip Events Conditions
12:15 AM 35.6 °F 26.6 °F 28.4 °F 75% 30.29 in 10.0 mi SW 13.8 mph 20.7 mph N/A   Overcast
12:35 AM 35.6 °F 26.2 °F 28.4 °F 75% 30.29 in 10.0 mi SW 15.0 mph 20.7 mph N/A   Overcast
12:55 AM 35.6 °F - 28.4 °F 75% 30.28 in 10.0 mi North - - N/A   Overcast
1:15 AM 35.6 °F 26.6 °F 28.4 °F 75% 30.28 in 10.0 mi SW 13.8 mph 20.7 mph N/A   Overcast
1:35 AM 35.6 °F 25.9 °F 30.2 °F 81% 30.27 in 10.0 mi SW 16.1 mph 24.2 mph N/A   Overcast
1:55 AM 35.6 °F 25.9 °F 30.2 °F 81% 30.27 in 10.0 mi SW 16.1 mph 21.9 mph N/A   Overcast
2:15 AM 37.4 °F 28.5 °F 30.2 °F 75% 30.27 in 10.0 mi SW 15.0 mph - N/A   Overcast
2:35 AM 37.4 °F 28.5 °F 30.2 °F 75% 30.26 in 10.0 mi SW 15.0 mph 20.7 mph N/A   Overcast
2:55 AM 37.4 °F 29.3 °F 30.2 °F 75% 30.26 in 10.0 mi SW 12.7 mph 21.9 mph N/A   Overcast
3:15 AM 37.4 °F 28.5 °F 30.2 °F 75% 30.24 in 10.0 mi SW 15.0 mph - N/A   Overcast
3:35 AM 37.4 °F 30.3 °F 32.0 °F 81% 30.24 in 10.0 mi SW 10.4 mph 17.3 mph N/A   Overcast
3:55 AM 37.4 °F 29.3 °F 32.0 °F 81% 30.24 in 10.0 mi SW 12.7 mph - N/A   Overcast
4:15 AM 37.4 °F 28.9 °F 32.0 °F 81% 30.24 in 10.0 mi SW 13.8 mph - N/A   Mostly Cloudy
4:35 AM 37.4 °F 29.8 °F 32.0 °F 81% 30.23 in 10.0 mi SSW 11.5 mph 17.3 mph N/A   Overcast
4:55 AM 37.4 °F 29.8 °F 32.0 °F 81% 30.22 in 10.0 mi SSW 11.5 mph 18.4 mph N/A   Overcast
5:15 AM 37.4 °F 30.3 °F 32.0 °F 81% 30.22 in 10.0 mi SSW 10.4 mph - N/A   Partly Cloudy
5:35 AM 37.4 °F 30.8 °F 32.0 °F 81% 30.22 in 10.0 mi SSW 9.2 mph - N/A   Clear
5:55 AM 37.4 °F 30.3 °F 32.0 °F 81% 30.22 in 10.0 mi SSW 10.4 mph - N/A   Clear
6:15 AM 35.6 °F 28.6 °F 30.2 °F 81% 30.22 in 10.0 mi SSW 9.2 mph - N/A   Partly Cloudy
6:35 AM 35.6 °F 29.2 °F 32.0 °F 87% 30.22 in 10.0 mi South 8.1 mph - N/A   Partly Cloudy
6:55 AM 37.4 °F 30.3 °F 32.0 °F 81% 30.21 in 10.0 mi South 10.4 mph - N/A   Clear
7:15 AM 39.2 °F 32.5 °F 33.8 °F 81% 30.21 in 10.0 mi SSW 10.4 mph - N/A   Clear
7:35 AM 41.0 °F 35.2 °F 33.8 °F 76% 30.21 in 10.0 mi South 9.2 mph 15.0 mph N/A   Clear
7:55 AM 42.8 °F 36.2 °F 35.6 °F 76% 30.21 in 10.0 mi SSW 12.7 mph - N/A   Mostly Cloudy
8:15 AM 44.6 °F 37.8 °F 35.6 °F 71% 30.20 in 10.0 mi SSW 15.0 mph - N/A   Partly Cloudy
8:35 AM 46.4 °F 40.1 °F 37.4 °F 71% 30.19 in 10.0 mi SSW 15.0 mph - N/A   Clear
8:55 AM 48.2 °F - 37.4 °F 66% 30.19 in 10.0 mi SSW 19.6 mph 26.5 mph N/A   Clear
9:15 AM 50.0 °F - 37.4 °F 62% 30.18 in 10.0 mi SSW 12.7 mph 23.0 mph N/A   Scattered Clouds
9:35 AM 50.0 °F - 39.2 °F 66% 30.17 in 10.0 mi SSW 16.1 mph - N/A   Scattered Clouds
9:55 AM 51.8 °F - 39.2 °F 62% 30.16 in 10.0 mi SSW 18.4 mph 26.5 mph N/A   Scattered Clouds
10:15 AM 51.8 °F - 41.0 °F 67% 30.16 in 10.0 mi SSW 17.3 mph 25.3 mph N/A   Overcast
10:35 AM 51.8 °F - 41.0 °F 67% 30.14 in 10.0 mi SSW 21.9 mph 27.6 mph N/A   Overcast
10:55 AM 53.6 °F - 42.8 °F 67% 30.13 in 10.0 mi SSW 18.4 mph 34.5 mph N/A   Overcast
11:15 AM 55.4 °F - 42.8 °F 63% 30.12 in 10.0 mi SW 31.1 mph 43.7 mph N/A   Mostly Cloudy
11:35 AM 57.2 °F - 42.8 °F 59% 30.11 in 10.0 mi SSW 28.8 mph 40.3 mph N/A   Clear
12:15 PM 57.2 °F - 44.6 °F 63% 30.09 in 10.0 mi SW 31.1 mph 48.3 mph N/A   Clear
12:35 PM 57.2 °F - 44.6 °F 63% 30.08 in 10.0 mi SW 29.9 mph 47.2 mph N/A   Scattered Clouds
12:55 PM 57.2 °F - 44.6 °F 63% 30.07 in 10.0 mi SW 28.8 mph 49.5 mph N/A   Mostly Cloudy
1:15 PM 57.2 °F - 44.6 °F 63% 30.06 in 10.0 mi SW 35.7 mph 47.2 mph N/A   Mostly Cloudy
1:35 PM 57.2 °F - 44.6 °F 63% 30.05 in 10.0 mi SW 33.4 mph 49.5 mph N/A   Overcast
1:55 PM 55.4 °F - 44.6 °F 67% 30.06 in 10.0 mi WSW 25.3 mph 47.2 mph N/A   Overcast
2:15 PM 55.4 °F - 44.6 °F 67% 30.04 in 10.0 mi SW 36.8 mph 44.9 mph N/A   Overcast
2:35 PM 55.4 °F - 44.6 °F 67% 30.03 in 10.0 mi SW 33.4 mph 49.5 mph N/A   Overcast
2:55 PM 53.6 °F - 44.6 °F 72% 30.04 in 10.0 mi SW 27.6 mph 42.6 mph N/A   Overcast
3:15 PM 53.6 °F - 44.6 °F 72% 30.04 in 9.0 mi SW 27.6 mph 34.5 mph N/A   Overcast
3:35 PM 53.6 °F - 44.6 °F 72% 30.03 in 9.0 mi SW 21.9 mph 33.4 mph N/A   Overcast
3:55 PM 53.6 °F - 44.6 °F 72% 30.02 in 9.0 mi SW 18.4 mph 31.1 mph N/A   Overcast
4:15 PM 53.6 °F - 44.6 °F 72% 30.01 in 9.0 mi SW 20.7 mph 32.2 mph N/A   Overcast
4:35 PM 53.6 °F - 44.6 °F 72% 30.01 in 9.0 mi SSW 25.3 mph 36.8 mph N/A   Overcast
4:55 PM 53.6 °F - 44.6 °F 72% 30.01 in 9.0 mi SSW 21.9 mph 33.4 mph N/A   Overcast
5:15 PM 53.6 °F - 44.6 °F 72% 30.01 in 9.0 mi SSW 25.3 mph 38.0 mph N/A   Overcast
5:35 PM 53.6 °F - 46.4 °F 77% 30.02 in 8.0 mi SW 25.3 mph 34.5 mph N/A Rain Light Rain
5:55 PM 53.6 °F - 44.6 °F 72% 30.02 in 9.0 mi SW 26.5 mph 40.3 mph N/A   Overcast
6:15 PM 51.8 °F - 46.4 °F 82% 30.04 in 7.0 mi SW 24.2 mph 36.8 mph N/A   Overcast
6:35 PM 50.0 °F - 46.4 °F 87% 30.04 in 3.0 mi SW 24.2 mph 35.7 mph N/A   Overcast
6:55 PM 48.2 °F - 46.4 °F 93% 30.06 in 2.0 mi WSW 19.6 mph 27.6 mph N/A   Overcast
7:15 PM 46.4 °F 39.2 °F 44.6 °F 93% 30.07 in 3.0 mi WSW 18.4 mph - N/A Rain Light Rain
7:35 PM 44.6 °F 36.9 °F 44.6 °F 100% 30.07 in 4.0 mi SW 18.4 mph 26.5 mph N/A   Overcast
7:55 PM 44.6 °F 36.9 °F 44.6 °F 100% 30.07 in 5.0 mi SW 18.4 mph 24.2 mph N/A   Overcast
8:15 PM 46.4 °F 39.8 °F 44.6 °F 93% 30.06 in 3.0 mi SW 16.1 mph 24.2 mph N/A   Overcast
8:35 PM 46.4 °F 39.5 °F 46.4 °F 100% 30.06 in 7.0 mi SW 17.3 mph 24.2 mph N/A   Overcast
8:55 PM 46.4 °F 40.7 °F 46.4 °F 100% 30.06 in 7.0 mi SW 12.7 mph 21.9 mph N/A   Overcast
9:15 PM 48.2 °F - 46.4 °F 93% 30.06 in 8.0 mi North - - N/A   Overcast
9:35 PM 48.2 °F - 46.4 °F 93% 30.07 in 7.0 mi SW 19.6 mph 31.1 mph N/A   Mostly Cloudy
9:55 PM 48.2 °F - 44.6 °F 87% 30.07 in 7.0 mi SW 18.4 mph 26.5 mph N/A   Scattered Clouds
10:15 PM 48.2 °F - 46.4 °F 93% 30.07 in 7.0 mi SW 19.6 mph 25.3 mph N/A   Mostly Cloudy
10:35 PM 48.2 °F - 46.4 °F 93% 30.07 in 7.0 mi SW 18.4 mph 26.5 mph N/A   Mostly Cloudy
10:55 PM 48.2 °F - 46.4 °F 93% 30.06 in 7.0 mi SW 17.3 mph - N/A   Mostly Cloudy
11:15 PM 48.2 °F - 44.6 °F 87% 30.06 in 7.0 mi SW 19.6 mph - N/A   Mostly Cloudy
11:35 PM 46.4 °F 40.1 °F 44.6 °F 93% 30.08 in 7.0 mi SW 15.0 mph 21.9 mph N/A   Scattered Clouds
11:55 PM 46.4 °F 40.1 °F 44.6 °F 93% 30.08 in 6.0 mi WSW 15.0 mph 20.7 mph N/A   Mostly Cloudy